Terug naar catalogus

SKYCRAFT 4E

ActiefWetenschapSSO
NORAD 65227·PAYLOAD·🇦🇺 Australia

Gelanceerd Jul 23, 2025 vanaf Vandenberg Space Force Base

Loading…

Volgende Passages (komende 24 uur)

TLE

VersSource: Space-Track

Epoch: Sep 14, 2026, 14:30 UTC

1 65227U 25154L   26257.60436157  .00005087  00000-0  42584-3 0  9999
2 65227  97.6620 320.8441 0003903 350.6441   9.4708 14.98880487 60724

Volg SKYCRAFT 4E in realtime met AllMySat

Download on the App Store